DW2736 Weather Reports


Display with metric or nautical units.
time (UTC)temp
F
wind
direction
speed
MPH
gust
MPH
rain 1hr
in
rain 24hr
in
rain mn
in
humidity
%
barometer
mb
20180223221314 46 292 4.0 9.0 0.00 0.17 0.07 48 1025.7
20180223221126 46 274 4.0 9.0 0.00 0.17 0.07 49 1025.7
20180223220935 46 323 3.0 9.0 0.00 0.17 0.07 52 1025.6
20180223220748 46 325 2.0 9.0 0.00 0.17 0.07 47 1025.6
20180223220552 46 315 2.0 9.0 0.00 0.17 0.07 50 1025.7
20180223220357 46 295 1.0 8.0 0.00 0.17 0.07 52 1025.7
20180223220210 46 294 1.0 10.0 0.00 0.17 0.07 52 1025.7
20180223220013 46 292 2.0 10.0 0.00 0.17 0.07 52 1025.7
20180223215825 46 315 3.0 10.0 0.00 0.17 0.07 53 1025.7
20180223215631 46 315 3.0 10.0 0.00 0.17 0.07 52 1025.8
20180223215440 46 315 3.0 10.0 0.00 0.17 0.07 51 1025.7
20180223215248 46 313 2.0 7.0 0.00 0.17 0.07 51 1025.7
20180223215055 46 298 1.0 6.0 0.00 0.17 0.07 53 1025.8
20180223214904 46 296 2.0 6.0 0.00 0.17 0.07 57 1025.8
20180223214715 46 296 2.0 6.0 0.00 0.17 0.07 52 1025.8
20180223214520 45 296 2.0 6.0 0.00 0.17 0.07 51 1025.8
20180223214332 45 290 2.0 6.0 0.00 0.17 0.07 54 1025.9
20180223214142 45 304 1.0 7.0 0.00 0.17 0.07 54 1025.8
20180223213951 45 304 1.0 7.0 0.00 0.17 0.07 53 1025.9
20180223213804 45 304 1.0 7.0 0.00 0.17 0.07 56 1025.9
20180223213608 45 306 2.0 9.0 0.00 0.17 0.07 55 1025.9
20180223213421 45 304 3.0 9.0 0.00 0.17 0.07 53 1025.9
20180223213225 45 317 3.0 9.0 0.00 0.17 0.07 55 1025.9
20180223213023 45 317 3.0 9.0 0.00 0.17 0.07 56 1025.9
20180223212832 45 291 3.0 9.0 0.00 0.17 0.07 54 1025.9
20180223212640 45 286 3.0 8.0 0.00 0.17 0.07 56 1025.9
20180223212445 45 317 3.0 6.0 0.00 0.17 0.07 57 1025.9
20180223212257 45 297 3.0 8.0 0.00 0.17 0.07 57 1025.9
20180223212107 45 296 3.0 9.0 0.00 0.17 0.07 57 1025.9
20180223211919 45 12 4.0 9.0 0.00 0.17 0.07 57 1025.9
20180223211728 45 282 4.0 9.0 0.00 0.17 0.07 55 1026.0
20180223211533 45 283 2.0 9.0 0.00 0.17 0.07 58 1026.0
20180223211346 45 284 2.0 6.0 0.00 0.17 0.07 62 1026.0
20180223211155 45 281 1.0 6.0 0.00 0.17 0.07 62 1026.1
20180223211003 45 304 2.0 6.0 0.00 0.17 0.07 62 1026.1
20180223210810 45 304 2.0 6.0 0.00 0.17 0.07 65 1026.1
20180223210619 44 294 2.0 6.0 0.00 0.17 0.07 64 1026.1
20180223210427 44 290 1.0 6.0 0.00 0.17 0.07 65 1026.1
20180223210236 44 290 1.0 4.0 0.00 0.17 0.07 63 1026.2
20180223210038 44 311 1.0 6.0 0.00 0.17 0.07 63 1026.2
20180223205851 44 311 1.0 6.0 0.00 0.17 0.07 64 1026.2
20180223205659 43 312 1.0 6.0 0.00 0.17 0.07 66 1026.1
20180223205506 43 312 1.0 6.0 0.00 0.17 0.07 63 1026.1
20180223205315 43 312 1.0 6.0 0.00 0.17 0.07 62 1026.1
20180223205123 43 298 1.0 4.0 0.00 0.17 0.07 66 1026.1
20180223204936 43 319 1.0 5.0 0.00 0.17 0.07 66 1026.1
20180223204744 43 320 1.0 5.0 0.00 0.17 0.07 64 1026.1
20180223204553 43 319 1.0 5.0 0.00 0.17 0.07 67 1026.2
20180223204357 43 322 0.0 5.0 0.00 0.17 0.07 73 1026.2
20180223204207 42 35 0.0 5.0 0.00 0.17 0.07 73 1026.3
20180223204015 42 30 0.0 4.0 0.00 0.17 0.07 74 1026.2
20180223203823 42 30 0.0 5.0 0.00 0.17 0.07 74 1026.2
20180223203628 42 25 1.0 5.0 0.00 0.17 0.07 72 1026.2
20180223203440 42 350 1.0 5.0 0.00 0.17 0.07 74 1026.4
20180223203246 42 344 1.0 5.0 0.00 0.17 0.07 75 1026.4
20180223203059 41 344 1.0 5.0 0.00 0.17 0.07 76 1026.4
20180223202908 41 26 1.0 5.0 0.00 0.17 0.07 76 1026.5
20180223202715 41 346 0.0 5.0 0.00 0.17 0.07 77 1026.5
20180223202524 41 298 0.0 5.0 0.00 0.17 0.07 76 1026.5
20180223202332 41 298 0.0 4.0 0.00 0.17 0.07 77 1026.6
20180223202145 41 9 0.0 4.0 0.00 0.17 0.07 77 1026.6
20180223201954 41 9 1.0 4.0 0.00 0.17 0.07 77 1026.6
20180223201802 41 317 1.0 4.0 0.00 0.17 0.07 78 1026.6
20180223201612 40 317 1.0 4.0 0.00 0.17 0.07 78 1026.6
20180223201421 40 317 0.0 4.0 0.00 0.17 0.07 78 1026.6
20180223201226 40 31 0.0 4.0 0.00 0.17 0.07 81 1026.6
20180223201036 40 34 0.0 4.0 0.00 0.17 0.07 79 1026.6
20180223200841 40 34 0.0 4.0 0.00 0.17 0.07 80 1026.7
20180223200653 40 37 0.0 4.0 0.00 0.17 0.07 80 1026.7
20180223200500 40 37 0.0 4.0 0.00 0.17 0.07 81 1026.8
20180223200308 40 37 1.0 4.0 0.00 0.17 0.07 81 1026.8
20180223200120 39 43 1.0 4.0 0.00 0.17 0.07 81 1026.8
20180223195929 39 44 1.0 5.0 0.00 0.17 0.07 81 1026.8
20180223195742 39 310 1.0 5.0 0.00 0.17 0.07 81 1026.9
20180223195547 39 351 0.0 5.0 0.00 0.17 0.07 83 1026.9
20180223195357 39 38 0.0 5.0 0.00 0.17 0.07 82 1026.9
20180223195206 39 38 0.0 5.0 0.00 0.17 0.07 82 1026.9
20180223195012 38 9 0.0 3.0 0.00 0.17 0.07 82 1026.9
20180223194816 38 15 0.0 4.0 0.00 0.17 0.07 78 1026.9
20180223194630 38 15 0.0 4.0 0.00 0.17 0.07 78 1026.9
20180223194436 38 15 0.0 5.0 0.00 0.17 0.07 78 1026.9
20180223194248 38 11 0.0 5.0 0.00 0.17 0.07 81 1026.9
20180223194058 38 5 0.0 5.0 0.00 0.17 0.07 79 1026.9
20180223193907 37 318 0.0 5.0 0.00 0.17 0.07 82 1026.9
20180223193719 37 293 0.0 5.0 0.00 0.17 0.07 80 1027.0
20180223193525 37 293 0.0 5.0 0.01 0.17 0.07 78 1027.0
20180223193337 37 293 0.0 5.0 0.01 0.17 0.07 78 1027.0
20180223193147 37 293 0.0 3.0 0.01 0.17 0.07 78 1027.0
20180223192955 37 323 0.0 3.0 0.01 0.17 0.07 79 1027.0
20180223192806 37 19 0.0 3.0 0.01 0.17 0.07 80 1027.0
20180223192614 37 19 0.0 3.0 0.01 0.17 0.07 81 1027.0
20180223192420 36 19 0.0 3.0 0.01 0.17 0.07 80 1027.0
20180223192233 36 19 0.0 4.0 0.01 0.17 0.07 80 1027.0
20180223192037 36 19 1.0 6.0 0.01 0.17 0.07 79 1027.0
20180223191850 36 298 1.0 6.0 0.01 0.17 0.07 79 1027.0
20180223191655 36 298 2.0 6.0 0.01 0.17 0.07 78 1027.0
20180223191502 36 298 2.0 6.0 0.01 0.17 0.07 79 1027.1
20180223191314 36 294 1.0 5.0 0.01 0.17 0.07 82 1027.1
20180223191122 36 292 2.0 5.0 0.01 0.17 0.07 82 1027.1
20180223190936 36 292 1.0 5.0 0.01 0.17 0.07 82 1027.0
20180223190744 36 290 2.0 5.0 0.01 0.17 0.07 79 1027.1
20180223190551 36 290 2.0 5.0 0.01 0.17 0.07 82 1027.1
20180223190401 35 292 1.0 5.0 0.01 0.17 0.07 81 1027.1
20180223190210 35 292 1.0 5.0 0.01 0.17 0.07 81 1027.1
20180223190013 35 323 0.0 3.0 0.01 0.17 0.07 81 1027.1
20180223185827 35 323 0.0 3.0 0.01 0.17 0.07 81 1027.0
20180223185631 35 323 0.0 3.0 0.01 0.17 0.07 83 1027.0
20180223185444 35 325 0.0 3.0 0.01 0.17 0.07 86 1027.0
20180223185248 35 88 0.0 0.0 0.01 0.17 0.07 85 1027.0
20180223185057 35 88 0.0 0.0 0.01 0.17 0.07 83 1027.0
20180223184909 35 88 0.0 0.0 0.01 0.17 0.07 83 1082.7
20180223184716 34 88 0.0 0.0 0.01 0.17 0.07 82 1082.7
20180223184524 34 88 0.0 0.0 0.01 0.17 0.07 84 1026.9
20180223184333 34 88 0.0 0.0 0.01 0.17 0.07 84 1026.9
20180223184141 34 88 0.0 0.0 0.02 0.17 0.07 86 1026.9
20180223183954 34 88 0.0 0.0 0.02 0.17 0.07 86 1026.9
20180223183802 34 88 0.0 2.0 0.02 0.17 0.07 86 1026.9
20180223183608 34 88 0.0 2.0 0.02 0.17 0.07 86 1026.9
20180223183421 34 88 0.0 2.0 0.02 0.17 0.07 86 1026.9
20180223183227 34 88 0.0 2.0 0.02 0.17 0.07 85 1026.9
20180223183034 34 88 0.0 2.0 0.03 0.17 0.07 85 1026.9
20180223182840 34 88 0.0 0.0 0.02 0.16 0.06 86 1026.9
20180223182648 33 88 0.0 0.0 0.02 0.16 0.06 88 1026.9
20180223182458 33 88 0.0 0.0 0.02 0.16 0.06 88 1026.8
20180223182305 33 88 0.0 0.0 0.02 0.16 0.06 87 1026.8
20180223182119 33 88 0.0 0.0 0.02 0.16 0.06 87 1026.8
20180223181928 33 88 0.0 0.0 0.03 0.16 0.06 87 1026.7
20180223181736 33 88 0.0 0.0 0.03 0.16 0.06 89 1026.7
20180223181546 33 88 0.0 0.0 0.03 0.16 0.06 89 1026.7
20180223181355 33 88 0.0 0.0 0.04 0.16 0.06 88 1026.7
20180223181200 33 88 0.0 0.0 0.04 0.16 0.06 88 1026.7
20180223181010 33 88 0.0 0.0 0.04 0.16 0.06 88 1026.7
20180223180814 33 88 0.0 0.0 0.04 0.16 0.06 89 1026.7
20180223180627 33 88 0.0 0.0 0.04 0.16 0.06 89 1026.7
20180223180433 33 88 0.0 0.0 0.05 0.16 0.06 89 1026.6
20180223180241 33 88 0.0 0.0 0.05 0.16 0.06 89 1026.6
20180223180050 33 88 0.0 0.0 0.05 0.16 0.06 89 1026.6
20180223175857 33 88 0.0 0.0 0.05 0.16 0.06 90 1026.6
20180223175711 33 88 0.0 0.0 0.05 0.16 0.06 90 1026.5
20180223175515 33 88 0.0 0.0 0.05 0.16 0.06 90 1026.4
20180223175323 32 88 0.0 0.0 0.05 0.16 0.06 90 1026.4
20180223175136 32 88 0.0 0.0 0.06 0.16 0.06 90 1026.4
20180223174944 32 88 0.0 0.0 0.06 0.16 0.06 89 1026.4
20180223174753 32 88 0.0 0.0 0.06 0.16 0.06 89 1026.4
20180223174604 32 88 0.0 0.0 0.06 0.16 0.06 90 1026.4
20180223174411 32 88 0.0 0.0 0.06 0.16 0.06 90 1026.4
20180223174223 32 88 0.0 0.0 0.06 0.16 0.06 90 1026.3
20180223174027 32 88 0.0 0.0 0.06 0.16 0.06 90 1026.3
20180223173834 32 88 0.0 0.0 0.06 0.16 0.06 90 1026.2
20180223173643 32 88 0.0 0.0 0.06 0.16 0.06 90 1026.2
20180223173452 32 88 0.0 0.0 0.06 0.16 0.06 90 1026.2
20180223173305 32 88 0.0 0.0 0.05 0.15 0.05 90 1026.2
20180223173113 32 88 0.0 0.0 0.05 0.15 0.05 90 1026.2
20180223172922 32 88 0.0 0.0 0.05 0.15 0.05 91 1026.2
20180223172734 32 88 0.0 0.0 0.05 0.15 0.05 91 1026.1
20180223172538 32 88 0.0 0.0 0.05 0.15 0.05 91 1026.1
20180223172347 32 88 0.0 0.0 0.05 0.15 0.05 91 1026.0
20180223172200 32 88 0.0 0.0 0.04 0.14 0.04 91 1026.0
20180223172004 32 88 0.0 0.0 0.04 0.14 0.04 90 1081.8
20180223171817 32 88 0.0 0.0 0.04 0.14 0.04 90 1081.8
20180223171621 32 88 0.0 0.0 0.04 0.14 0.04 90 1026.0
20180223171429 32 88 0.0 0.0 0.04 0.14 0.04 90 1026.1
20180223171240 32 88 0.0 0.0 0.04 0.14 0.04 90 1026.0
20180223171046 32 88 0.0 0.0 0.03 0.13 0.03 91 1026.0
20180223170858 32 88 0.0 0.0 0.03 0.13 0.03 91 1026.0
20180223170708 32 88 0.0 0.0 0.03 0.13 0.03 91 1026.0
20180223170511 32 88 0.0 0.0 0.03 0.13 0.03 90 1026.0
20180223170324 32 88 0.0 0.0 0.03 0.13 0.03 90 1026.0
20180223170132 32 88 0.0 0.0 0.02 0.12 0.02 90 1025.9
20180223165941 32 88 0.0 0.0 0.02 0.12 0.02 91 1025.9
20180223165754 32 88 0.0 0.0 0.02 0.12 0.02 91 1025.9
20180223165557 31 88 0.0 0.0 0.02 0.12 0.02 91 1025.8
20180223165411 31 88 0.0 0.0 0.02 0.12 0.02 92 1025.8
20180223165216 31 88 0.0 0.0 0.01 0.11 0.01 92 1025.8
20180223165022 31 88 0.0 0.0 0.01 0.11 0.01 92 1025.8
20180223164831 30 88 0.0 0.0 0.01 0.11 0.01 91 1025.8
20180223164639 30 88 0.0 0.0 0.01 0.11 0.01 90 1025.8
20180223164448 30 88 0.0 0.0 0.01 0.11 0.01 91 1025.7
20180223164258 30 88 0.0 0.0 0.01 0.11 0.01 91 1025.7
20180223164105 30 88 0.0 0.0 0.00 0.10 0.00 91 1025.7
20180223163919 30 88 0.0 0.0 0.00 0.10 0.00 91 1025.7
20180223163727 30 88 0.0 0.0 0.00 0.10 0.00 92 1025.6
20180223163532 29 88 0.0 0.0 0.00 0.10 0.00 92 1025.6
20180223163344 29 88 0.0 0.0 0.00 0.10 0.00 92 1025.6
20180223163153 29 88 0.0 0.0 0.00 0.10 0.00 92 1025.6
20180223163000 29 88 0.0 0.0 0.00 0.10 0.00 93 1025.6
20180223162806 29 88 0.0 0.0 0.00 0.10 0.00 93 1081.1
20180223162615 29 88 0.0 0.0 0.00 0.10 0.00 93 1081.1
20180223162425 29 88 0.0 0.0 0.00 0.10 0.00 94 1025.5
20180223162234 29 88 0.0 0.0 0.00 0.10 0.00 95 1025.4
20180223162039 28 88 0.0 0.0 0.00 0.10 0.00 94 1025.4
20180223161849 28 88 0.0 0.0 0.00 0.10 0.00 94 1025.4
20180223161656 28 88 0.0 0.0 0.00 0.10 0.00 94 1025.3
20180223161508 27 88 0.0 0.0 0.00 0.10 0.00 94 1025.3
20180223161315 27 88 0.0 0.0 0.00 0.10 0.00 94 1025.3
20180223161124 27 88 0.0 0.0 0.00 0.10 0.00 94 1025.3
20180223160936 27 88 0.0 0.0 0.00 0.10 0.00 93 1025.2
20180223160745 26 88 0.0 0.0 0.00 0.10 0.00 93 1025.2
20180223160552 26 88 0.0 0.0 0.00 0.10 0.00 93 1025.2
20180223160357 26 88 0.0 0.0 0.00 0.10 0.00 93 1025.2
20180223160205 26 88 0.0 0.0 0.00 0.10 0.00 93 1025.1
20180223160013 26 88 0.0 0.0 0.00 0.10 0.00 93 1025.1
20180223155821 26 88 0.0 0.0 0.00 0.10 0.00 93 1025.1
20180223155631 25 88 0.0 0.0 0.00 0.10 0.00 93 1025.0
20180223155438 25 88 0.0 0.0 0.00 0.10 0.00 92 1024.9
20180223155245 25 88 0.0 0.0 0.00 0.10 0.00 92 1024.9
20180223155056 25 88 0.0 0.0 0.00 0.10 0.00 92 1024.9
20180223154905 25 88 0.0 0.0 0.00 0.10 0.00 92 1024.9
20180223154713 25 88 0.0 0.0 0.00 0.10 0.00 92 1024.9
20180223154523 25 88 0.0 0.0 0.00 0.10 0.00 92 1025.0
20180223154333 25 88 0.0 0.0 0.00 0.10 0.00 92 1025.0
20180223154145 25 88 0.0 0.0 0.00 0.10 0.00 92 1024.9
20180223153954 25 88 0.0 0.0 0.00 0.10 0.00 92 1024.9
20180223153802 25 88 0.0 0.0 0.00 0.10 0.00 92 1024.8
20180223153612 25 88 0.0 0.0 0.00 0.10 0.00 92 1024.8
20180223153421 25 88 0.0 0.0 0.00 0.10 0.00 92 1024.8
20180223153231 24 88 0.0 0.0 0.00 0.10 0.00 92 1024.8
20180223153033 24 88 0.0 0.0 0.00 0.10 0.00 92 1024.8
20180223152839 24 88 0.0 0.0 0.00 0.10 0.00 92 1024.7
20180223152650 24 88 0.0 0.0 0.00 0.10 0.00 92 1024.6
20180223152457 24 88 0.0 0.0 0.00 0.10 0.00 92 1024.6
20180223152304 24 88 0.0 0.0 0.00 0.10 0.00 92 1024.6
20180223152117 24 88 0.0 0.0 0.00 0.10 0.00 92 1024.5
20180223151926 24 88 0.0 2.0 0.00 0.10 0.00 92 1024.5
20180223151739 24 88 0.0 2.0 0.00 0.10 0.00 92 1024.4
20180223151544 24 88 0.0 2.0 0.00 0.10 0.00 92 1024.4
20180223151354 24 88 0.0 0.0 0.00 0.10 0.00 92 1024.3
20180223151202 24 88 0.0 0.0 0.00 0.10 0.00 92 1024.3
20180223151007 24 88 0.0 0.0 0.00 0.10 0.00 92 1079.8
20180223150816 24 88 0.0 0.0 0.00 0.10 0.00 92 1079.8
20180223150623 24 88 0.0 0.0 0.00 0.10 0.00 92 1024.2
20180223150429 24 88 0.0 0.0 0.00 0.10 0.00 92 1024.2
20180223150241 24 88 0.0 0.0 0.00 0.10 0.00 92 1024.2
20180223150043 24 88 0.0 0.0 0.00 0.10 0.00 93 1024.1
20180223145851 24 88 0.0 0.0 0.00 0.10 0.00 93 1024.1
20180223145704 24 88 0.0 0.0 0.00 0.10 0.00 93 1024.0
20180223145511 24 88 0.0 0.0 0.00 0.10 0.00 92 1024.0
20180223145323 24 88 0.0 0.0 0.00 0.10 0.00 92 1023.9
20180223145131 24 88 0.0 0.0 0.00 0.10 0.00 92 1023.9
20180223144942 24 88 0.0 0.0 0.00 0.10 0.00 92 1023.9
20180223144754 24 88 0.0 0.0 0.00 0.10 0.00 92 1023.9
20180223144603 24 88 0.0 0.0 0.00 0.10 0.00 93 1023.9
20180223144411 24 88 0.0 0.0 0.00 0.10 0.00 93 1023.9
20180223144221 24 88 0.0 0.0 0.00 0.10 0.00 93 1023.8
20180223144024 24 88 0.0 0.0 0.00 0.10 0.00 93 1023.9
20180223143837 24 88 0.0 0.0 0.00 0.10 0.00 93 1023.9
20180223143643 24 88 0.0 0.0 0.00 0.10 0.00 92 1023.9
20180223143451 24 88 0.0 0.0 0.00 0.10 0.00 92 1023.8
20180223143304 24 88 0.0 0.0 0.00 0.10 0.00 92 1023.7
20180223143112 24 88 0.0 0.0 0.00 0.10 0.00 92 1023.7
20180223142925 24 88 0.0 0.0 0.00 0.10 0.00 92 1023.7
20180223142733 24 88 0.0 0.0 0.00 0.10 0.00 92 1023.7
20180223142537 24 88 0.0 0.0 0.00 0.10 0.00 92 1023.7
20180223142351 24 88 0.0 0.0 0.00 0.10 0.00 93 1023.6
20180223142158 24 88 0.0 0.0 0.00 0.10 0.00 93 1023.6
20180223142007 24 88 0.0 0.0 0.00 0.10 0.00 93 1023.5
20180223141817 24 88 0.0 0.0 0.00 0.10 0.00 93 1023.6
20180223141621 24 88 0.0 0.0 0.00 0.10 0.00 93 1023.6
20180223141435 24 88 0.0 0.0 0.00 0.10 0.00 93 1023.5
20180223141238 24 88 0.0 0.0 0.00 0.10 0.00 93 1023.5
20180223141043 24 88 0.0 0.0 0.00 0.10 0.00 93 1023.5
20180223140853 24 88 0.0 0.0 0.00 0.10 0.00 93 1023.4
20180223140702 24 88 0.0 0.0 0.00 0.10 0.00 93 1023.5
20180223140511 24 88 0.0 0.0 0.00 0.10 0.00 92 1023.4
20180223140318 24 88 0.0 0.0 0.00 0.10 0.00 92 1023.4
20180223140127 24 88 0.0 0.0 0.00 0.10 0.00 93 1023.4
20180223135939 24 88 0.0 0.0 0.00 0.10 0.00 93 1023.4
20180223135748 24 88 0.0 0.0 0.00 0.10 0.00 93 1023.4
20180223135557 24 88 0.0 0.0 0.00 0.10 0.00 93 1023.3
20180223135406 24 88 0.0 0.0 0.00 0.10 0.00 93 1023.3
20180223135211 24 88 0.0 0.0 0.00 0.10 0.00 93 1023.3
20180223135022 24 88 0.0 0.0 0.00 0.10 0.00 93 1023.3
20180223134825 24 88 0.0 0.0 0.00 0.10 0.00 93 1023.3
20180223134635 25 88 0.0 0.0 0.00 0.10 0.00 93 1023.2
20180223134443 25 88 0.0 0.0 0.00 0.10 0.00 93 1023.1
20180223134253 25 88 0.0 0.0 0.00 0.10 0.00 93 1023.1
20180223134104 25 88 0.0 0.0 0.00 0.10 0.00 93 1023.0
20180223133913 25 88 0.0 0.0 0.00 0.10 0.00 93 1023.1
20180223133721 25 88 0.0 0.0 0.00 0.10 0.00 93 1023.1
20180223133532 25 88 0.0 0.0 0.00 0.10 0.00 93 1023.1
20180223133339 25 88 0.0 0.0 0.00 0.10 0.00 93 1023.1
20180223133153 25 88 0.0 0.0 0.00 0.10 0.00 93 1023.1
20180223132958 25 88 0.0 0.0 0.00 0.10 0.00 93 1023.1
20180223132804 25 88 0.0 0.0 0.00 0.10 0.00 93 1023.1
20180223132616 25 88 0.0 0.0 0.00 0.10 0.00 93 1023.1
20180223132422 25 88 0.0 0.0 0.00 0.10 0.00 93 1023.2
20180223132230 25 88 0.0 0.0 0.00 0.10 0.00 93 1023.2
20180223132040 25 88 0.0 0.0 0.00 0.10 0.00 93 1023.1
20180223131847 25 88 0.0 0.0 0.00 0.10 0.00 93 1023.1
20180223131700 25 88 0.0 0.0 0.00 0.10 0.00 93 1023.0
20180223131506 25 88 0.0 0.0 0.00 0.10 0.00 93 1023.0
20180223131315 25 88 0.0 0.0 0.00 0.10 0.00 93 1022.9
20180223131128 25 88 0.0 0.0 0.00 0.10 0.00 93 1022.9
20180223130937 25 88 0.0 0.0 0.00 0.10 0.00 93 1022.8
20180223130749 25 88 0.0 0.0 0.00 0.10 0.00 93 1022.8
20180223130554 25 88 0.0 0.0 0.00 0.10 0.00 93 1022.8
20180223130400 25 88 0.0 0.0 0.00 0.10 0.00 93 1022.7
20180223130212 25 88 0.0 0.0 0.00 0.10 0.00 93 1022.7
20180223130015 25 88 0.0 0.0 0.00 0.10 0.00 93 1022.7
20180223125822 25 88 0.0 0.0 0.00 0.10 0.00 93 1022.6
20180223125632 25 88 0.0 0.0 0.00 0.10 0.00 93 1022.6
20180223125440 25 88 0.0 0.0 0.00 0.10 0.00 93 1022.6
20180223125249 25 88 0.0 0.0 0.00 0.10 0.00 93 1022.6
20180223125058 25 88 0.0 0.0 0.00 0.10 0.00 93 1022.6
20180223124906 25 88 0.0 0.0 0.00 0.10 0.00 93 1022.6
20180223124718 25 88 0.0 0.0 0.00 0.10 0.00 93 1022.6
20180223124524 25 88 0.0 0.0 0.00 0.10 0.00 93 1022.7
20180223124337 25 88 0.0 0.0 0.00 0.10 0.00 93 1022.7
20180223124146 25 88 0.0 0.0 0.00 0.10 0.00 93 1022.7
20180223123954 25 88 0.0 0.0 0.00 0.10 0.00 93 1022.7
20180223123808 25 88 0.0 0.0 0.00 0.10 0.00 93 1022.6
20180223123612 25 88 0.0 0.0 0.00 0.10 0.00 93 1022.6
20180223123421 25 88 0.0 0.0 0.00 0.10 0.00 93 1022.6
20180223123230 25 88 0.0 0.0 0.00 0.10 0.00 93 1022.6
20180223123035 25 88 0.0 0.0 0.00 0.10 0.00 93 1022.6
20180223122844 25 88 0.0 0.0 0.00 0.10 0.00 93 1022.5
20180223122654 25 88 0.0 0.0 0.00 0.10 0.00 93 1022.5
20180223122459 25 88 0.0 0.0 0.00 0.10 0.00 93 1022.5
20180223122311 25 88 0.0 0.0 0.00 0.10 0.00 93 1022.5
20180223122120 25 88 0.0 0.0 0.00 0.10 0.00 93 1022.6
20180223121933 25 88 0.0 0.0 0.00 0.10 0.00 93 1022.5
20180223121741 26 88 0.0 0.0 0.00 0.10 0.00 93 1022.6
20180223121547 26 88 0.0 0.0 0.00 0.10 0.00 93 1022.6
20180223121359 26 88 0.0 0.0 0.00 0.10 0.00 93 1022.5
20180223121205 26 88 0.0 0.0 0.00 0.10 0.00 93 1022.5
20180223121009 26 88 0.0 0.0 0.00 0.10 0.00 93 1022.5
20180223120819 26 88 0.0 0.0 0.00 0.10 0.00 93 1022.5
20180223120626 26 88 0.0 0.0 0.00 0.10 0.00 93 1022.5
20180223120434 26 88 0.0 0.0 0.00 0.10 0.00 93 1022.5
20180223120241 26 88 0.0 0.0 0.00 0.10 0.00 93 1022.5
20180223120045 26 88 0.0 0.0 0.00 0.10 0.00 93 1022.5
20180223115856 26 88 0.0 0.0 0.00 0.10 0.00 93 1022.4
20180223115705 26 88 0.0 0.0 0.00 0.10 0.00 93 1022.4
20180223115512 26 88 0.0 0.0 0.00 0.10 0.00 93 1022.5
20180223115320 26 88 0.0 0.0 0.00 0.10 0.00 93 1022.4
20180223115128 26 88 0.0 0.0 0.00 0.10 0.00 93 1022.4
20180223114940 26 88 0.0 0.0 0.00 0.10 0.00 93 1022.3
20180223114747 26 88 0.0 0.0 0.00 0.10 0.00 93 1022.3
20180223114552 26 88 0.0 0.0 0.00 0.10 0.00 93 1022.3
20180223114359 26 88 0.0 0.0 0.00 0.10 0.00 93 1022.3
20180223114208 26 88 0.0 0.0 0.00 0.10 0.00 93 1022.3
20180223114014 26 88 0.0 0.0 0.00 0.10 0.00 93 1022.3
20180223113821 26 88 0.0 0.0 0.00 0.10 0.00 93 1022.2
20180223113625 26 88 0.0 0.0 0.00 0.10 0.00 93 1022.1
20180223113436 26 88 0.0 0.0 0.00 0.10 0.00 94 1022.0
20180223113240 26 88 0.0 0.0 0.00 0.10 0.00 94 1022.1
20180223113048 26 88 0.0 0.0 0.00 0.10 0.00 94 1022.1
20180223112852 26 88 0.0 0.0 0.00 0.10 0.00 94 1022.0
20180223112659 26 88 0.0 0.0 0.00 0.10 0.00 94 1022.0
20180223112507 26 88 0.0 0.0 0.00 0.10 0.00 94 1077.3
20180223112315 27 88 0.0 0.0 0.00 0.10 0.00 94 1077.3
20180223112122 27 88 0.0 0.0 0.00 0.10 0.00 94 1022.2
20180223111934 27 88 0.0 0.0 0.00 0.10 0.00 94 1022.1
20180223111741 27 88 0.0 0.0 0.00 0.10 0.00 94 1022.2
20180223111550 27 88 0.0 0.0 0.00 0.10 0.00 94 1022.2
20180223111358 27 88 0.0 0.0 0.00 0.10 0.00 94 1022.1
20180223111202 27 88 0.0 0.0 0.00 0.10 0.00 94 1022.1
20180223111010 27 88 0.0 0.0 0.00 0.10 0.00 94 1022.0
20180223110814 27 88 0.0 0.0 0.00 0.10 0.00 94 1021.9
20180223110624 27 88 0.0 0.0 0.00 0.10 0.00 94 1021.8
20180223110429 27 88 0.0 0.0 0.00 0.10 0.00 94 1021.9
20180223110237 27 88 0.0 0.0 0.00 0.10 0.00 94 1021.9
20180223110043 27 88 0.0 0.0 0.00 0.10 0.00 94 1021.9
20180223105851 27 88 0.0 0.0 0.00 0.10 0.00 94 1021.8
20180223105654 27 88 0.0 0.0 0.00 0.10 0.00 94 1021.9
20180223105502 27 88 0.0 0.0 0.00 0.10 0.00 94 1021.9
20180223105310 27 88 0.0 0.0 0.00 0.10 0.00 94 1021.8
20180223105122 27 88 0.0 0.0 0.00 0.10 0.00 94 1021.9
20180223104931 27 88 0.0 0.0 0.00 0.10 0.00 94 1021.9
20180223104739 27 88 0.0 0.0 0.00 0.10 0.00 94 1021.9
20180223104548 27 88 0.0 0.0 0.00 0.10 0.00 94 1021.9
20180223104355 27 88 0.0 0.0 0.00 0.10 0.00 94 1021.8
20180223104208 27 88 0.0 0.0 0.00 0.10 0.00 94 1021.8
20180223104010 27 88 0.0 0.0 0.00 0.10 0.00 95 1021.8
20180223103818 27 88 0.0 0.0 0.00 0.10 0.00 95 1021.8
20180223103627 27 88 0.0 0.0 0.00 0.10 0.00 95 1021.8
20180223103437 27 88 0.0 0.0 0.00 0.10 0.00 95 1021.8
20180223103240 27 88 0.0 0.0 0.00 0.10 0.00 95 1021.8
20180223103050 27 88 0.0 0.0 0.00 0.10 0.00 95 1021.8
20180223102856 27 88 0.0 0.0 0.00 0.10 0.00 95 1021.8
20180223102710 27 88 0.0 0.0 0.00 0.10 0.00 95 1021.8
20180223102517 27 88 0.0 0.0 0.00 0.10 0.00 95 1021.8
20180223102326 27 88 0.0 0.0 0.00 0.10 0.00 95 1021.7
20180223102139 27 88 0.0 0.0 0.00 0.10 0.00 95 1021.7
20180223101948 27 88 0.0 0.0 0.00 0.10 0.00 95 1021.7
20180223101801 27 88 0.0 0.0 0.00 0.10 0.00 95 1021.7
20180223101607 27 88 0.0 0.0 0.00 0.10 0.00 95 1021.7
20180223101415 27 88 0.0 0.0 0.00 0.10 0.00 95 1021.7
20180223101224 27 88 0.0 0.0 0.00 0.10 0.00 95 1021.6
20180223101029 27 88 0.0 0.0 0.00 0.10 0.00 95 1021.7
20180223100834 27 88 0.0 0.0 0.00 0.10 0.00 95 1021.7
20180223100647 27 88 0.0 0.0 0.00 0.10 0.00 95 1021.7
20180223100453 27 88 0.0 0.0 0.00 0.10 0.00 95 1021.7
20180223100306 27 88 0.0 0.0 0.00 0.10 0.00 95 1021.7
20180223100116 27 88 0.0 0.0 0.00 0.10 0.00 95 1021.7
20180223095923 27 88 0.0 0.0 0.00 0.10 0.00 95 1021.7
20180223095736 27 88 0.0 0.0 0.00 0.10 0.00 95 1021.7
20180223095540 27 88 0.0 0.0 0.00 0.10 0.00 95 1021.8
20180223095353 27 88 0.0 0.0 0.00 0.10 0.00 94 1021.8
20180223095158 27 88 0.0 0.0 0.00 0.10 0.00 94 1021.8
20180223095005 27 88 0.0 0.0 0.00 0.10 0.00 94 1021.8
20180223094815 27 88 0.0 0.0 0.00 0.10 0.00 94 1021.8
20180223094623 27 88 0.0 0.0 0.00 0.10 0.00 95 1021.8
20180223094429 27 88 0.0 0.0 0.00 0.10 0.00 95 1021.8
20180223094242 27 88 0.0 0.0 0.00 0.10 0.00 95 1021.7
20180223094046 27 88 0.0 0.0 0.00 0.10 0.00 95 1021.8
20180223093858 27 88 0.0 0.0 0.00 0.10 0.00 95 1021.7
20180223093706 27 88 0.0 0.0 0.00 0.10 0.00 95 1021.7
20180223093511 27 88 0.0 0.0 0.00 0.10 0.00 95 1021.7
20180223093323 27 88 0.0 0.0 0.00 0.10 0.00 95 1021.7
20180223093132 27 88 0.0 0.0 0.00 0.10 0.00 94 1021.7
20180223092944 27 88 0.0 0.0 0.00 0.10 0.00 94 1021.6
20180223092752 27 88 0.0 0.0 0.00 0.10 0.00 94 1021.6
20180223092555 27 88 0.0 0.0 0.00 0.10 0.00 94 1021.6
20180223092403 27 88 0.0 0.0 0.00 0.10 0.00 95 1021.6
20180223092211 27 88 0.0 0.0 0.00 0.10 0.00 95 1021.5
20180223092013 27 88 0.0 0.0 0.00 0.10 0.00 95 1021.5
20180223091825 27 88 0.0 0.0 0.00 0.10 0.00 95 1021.5
20180223091629 27 88 0.0 0.0 0.00 0.10 0.00 95 1021.5
20180223091441 27 88 0.0 0.0 0.00 0.10 0.00 95 1021.5
20180223091245 27 88 0.0 0.0 0.00 0.10 0.00 95 1021.5
20180223091048 28 88 0.0 0.0 0.00 0.10 0.00 95 1021.6
20180223090859 28 88 0.0 0.0 0.00 0.10 0.00 95 1021.5
20180223090707 28 88 0.0 0.0 0.00 0.10 0.00 95 1021.6
20180223090516 28 88 0.0 0.0 0.00 0.10 0.00 95 1021.5
20180223090323 28 88 0.0 0.0 0.00 0.10 0.00 95 1021.6
20180223090131 28 88 0.0 0.0 0.00 0.10 0.00 95 1021.6
20180223085942 28 88 0.0 0.0 0.00 0.10 0.00 95 1021.6
20180223085751 28 88 0.0 0.0 0.00 0.10 0.00 95 1021.6
20180223085555 28 88 0.0 0.0 0.00 0.10 0.00 95 1021.6
20180223085408 28 88 0.0 0.0 0.00 0.10 0.00 95 1021.6
20180223085213 28 88 0.0 0.0 0.00 0.10 0.00 95 1021.6
20180223085020 28 88 0.0 0.0 0.00 0.10 0.00 95 1021.6
20180223084824 28 88 0.0 0.0 0.00 0.10 0.00 95 1021.6
20180223084631 28 88 0.0 0.0 0.00 0.10 0.00 95 1021.6
20180223084439 28 88 0.0 0.0 0.00 0.10 0.00 95 1021.6
20180223084247 28 88 0.0 0.0 0.00 0.10 0.00 95 1021.5
20180223084053 28 88 0.0 0.0 0.00 0.10 0.00 95 1021.5
20180223083900 28 88 0.0 0.0 0.00 0.10 0.00 95 1021.5
20180223083708 28 88 0.0 0.0 0.00 0.10 0.00 95 1021.6
20180223083512 28 88 0.0 0.0 0.00 0.10 0.00 95 1021.5
20180223083320 28 88 0.0 0.0 0.00 0.10 0.00 95 1021.5
20180223083126 28 88 0.0 0.0 0.00 0.10 0.00 95 1021.5
20180223082939 28 88 0.0 0.0 0.00 0.10 0.00 95 1021.5
20180223082746 28 88 0.0 0.0 0.00 0.10 0.00 95 1021.5
20180223082555 28 88 0.0 0.0 0.00 0.10 0.00 95 1021.5
20180223082359 28 88 0.0 0.0 0.00 0.10 0.00 95 1021.5
20180223082207 28 88 0.0 0.0 0.00 0.10 0.00 95 1076.5
20180223082014 28 88 0.0 0.0 0.00 0.10 0.00 95 1076.5
20180223081822 28 88 0.0 0.0 0.00 0.10 0.00 95 1021.4
20180223081630 28 88 0.0 0.0 0.00 0.10 0.00 95 1021.4
20180223081439 28 88 0.0 0.0 0.00 0.10 0.00 95 1021.4
20180223081242 28 88 0.0 0.0 0.00 0.10 0.00 95 1021.4
20180223081051 28 88 0.0 0.0 0.00 0.10 0.00 95 1021.4
20180223080859 28 88 0.0 0.0 0.00 0.10 0.00 95 1021.4
20180223080708 29 88 0.0 0.0 0.00 0.10 0.00 95 1021.5
20180223080517 29 88 0.0 0.0 0.00 0.10 0.00 95 1021.4
20180223080326 29 88 0.0 0.0 0.00 0.10 0.00 95 1021.4
20180223080138 29 88 0.0 0.0 0.00 0.10 0.00 95 1021.4
20180223075942 29 88 0.0 0.0 0.00 0.10 0.10 95 1021.4
20180223075751 29 88 0.0 0.0 0.00 0.10 0.10 95 1021.4
20180223075559 29 88 0.0 0.0 0.00 0.10 0.10 95 1021.3
20180223075408 29 88 0.0 0.0 0.00 0.10 0.10 95 1021.3
20180223075216 29 88 0.0 0.0 0.00 0.10 0.10 95 1021.3
20180223075022 29 88 0.0 0.0 0.00 0.10 0.10 95 1021.2
20180223074827 29 88 0.0 0.0 0.00 0.10 0.10 95 1021.3
20180223074639 29 88 0.0 0.0 0.00 0.10 0.10 95 1021.2
20180223074444 29 88 0.0 0.0 0.00 0.10 0.10 95 1021.3
20180223074253 29 88 0.0 0.0 0.00 0.10 0.10 95 1021.3
20180223074106 29 88 0.0 0.0 0.00 0.10 0.10 95 1021.3
20180223073915 29 88 0.0 0.0 0.00 0.10 0.10 95 1021.3
20180223073727 29 88 0.0 0.0 0.00 0.10 0.10 95 1021.3
20180223073533 29 88 0.0 0.0 0.00 0.10 0.10 95 1021.3
20180223073342 29 88 0.0 0.0 0.00 0.10 0.10 95 1021.3
20180223073155 29 88 0.0 0.0 0.00 0.10 0.10 95 1021.2
20180223073000 29 88 0.0 0.0 0.00 0.10 0.10 95 1021.2
20180223072809 29 88 0.0 0.0 0.00 0.10 0.10 95 1021.2
20180223072617 29 88 0.0 0.0 0.00 0.10 0.10 95 1021.1
20180223072423 29 88 0.0 0.0 0.00 0.10 0.10 95 1021.1
20180223072235 29 88 0.0 0.0 0.00 0.10 0.10 95 1021.1
20180223072038 29 88 0.0 0.0 0.00 0.10 0.10 95 1021.1
20180223071846 29 88 0.0 0.0 0.00 0.10 0.10 95 1021.0
20180223071655 29 88 0.0 0.0 0.00 0.10 0.10 95 1021.0
20180223071459 29 88 0.0 0.0 0.00 0.10 0.10 95 1021.0
20180223071312 29 88 0.0 0.0 0.00 0.10 0.10 95 1021.0
20180223071120 29 88 0.0 0.0 0.00 0.10 0.10 95 1021.0
20180223070929 29 88 0.0 0.0 0.00 0.10 0.10 95 1021.0
20180223070741 29 88 0.0 0.0 0.00 0.10 0.10 95 1021.0
20180223070547 29 88 0.0 0.0 0.00 0.10 0.10 94 1021.0
20180223070356 29 88 0.0 0.0 0.00 0.10 0.10 95 1021.0
20180223070205 30 88 0.0 0.0 0.00 0.10 0.10 95 1021.0
20180223070006 30 88 0.0 0.0 0.00 0.10 0.10 95 1021.0
20180223065819 30 88 0.0 0.0 0.00 0.10 0.10 95 1021.0
20180223065623 30 88 0.0 0.0 0.00 0.10 0.10 95 1021.0
20180223065432 30 88 0.0 0.0 0.00 0.10 0.10 95 1020.9
20180223065240 30 88 0.0 0.0 0.00 0.10 0.10 94 1020.9
20180223065047 30 88 0.0 0.0 0.00 0.10 0.10 94 1020.8
20180223064859 30 88 0.0 0.0 0.00 0.10 0.10 94 1020.8
20180223064707 30 88 0.0 0.0 0.00 0.10 0.10 95 1020.8
20180223064514 30 88 0.0 0.0 0.00 0.10 0.10 95 1020.8
20180223064327 30 88 0.0 0.0 0.00 0.10 0.10 95 1020.8
20180223064134 30 88 0.0 0.0 0.00 0.10 0.10 95 1020.7
20180223063947 30 88 0.0 0.0 0.00 0.10 0.10 95 1020.8
20180223063754 30 88 0.0 0.0 0.00 0.10 0.10 95 1020.7
20180223063559 30 88 0.0 0.0 0.00 0.10 0.10 95 1020.7
20180223063410 30 88 0.0 0.0 0.00 0.10 0.10 95 1020.7
20180223063216 30 88 0.0 0.0 0.00 0.10 0.10 95 1020.7
20180223063020 30 88 0.0 0.0 0.00 0.10 0.10 95 1020.7
20180223062829 31 88 0.0 0.0 0.00 0.10 0.10 95 1020.7
20180223062636 31 88 0.0 0.0 0.00 0.10 0.10 95 1020.7
20180223062443 31 88 0.0 0.0 0.00 0.10 0.10 95 1020.6
20180223062251 31 88 0.0 0.0 0.00 0.10 0.10 94 1020.6
20180223062059 31 88 0.0 0.0 0.00 0.10 0.10 95 1020.6
20180223061910 31 88 0.0 0.0 0.00 0.10 0.10 95 1020.6
20180223061718 31 88 0.0 0.0 0.00 0.10 0.10 95 1020.7
20180223061524 31 88 0.0 0.0 0.00 0.10 0.10 95 1020.6
20180223061333 31 88 0.0 0.0 0.00 0.10 0.10 95 1020.6
20180223061139 31 88 0.0 0.0 0.00 0.10 0.10 95 1020.6
20180223060951 31 88 0.0 0.0 0.00 0.10 0.10 95 1020.6
20180223060756 31 88 0.0 0.0 0.00 0.10 0.10 95 1020.6
20180223060605 31 88 0.0 0.0 0.00 0.10 0.10 95 1020.6
20180223060413 31 88 0.0 0.0 0.00 0.10 0.10 95 1020.5
20180223060220 31 88 0.0 0.0 0.00 0.10 0.10 95 1020.6
20180223060026 31 88 0.0 0.0 0.00 0.10 0.10 95 1020.6
20180223055833 31 88 0.0 0.0 0.00 0.10 0.10 95 1020.5
20180223055639 31 88 0.0 0.0 0.00 0.10 0.10 95 1020.5
20180223055449 31 88 0.0 0.0 0.00 0.10 0.10 95 1020.5
20180223055258 31 88 0.0 0.0 0.00 0.10 0.10 95 1020.5
20180223055109 31 88 0.0 0.0 0.00 0.10 0.10 95 1020.5
20180223054919 31 88 0.0 0.0 0.00 0.10 0.10 95 1020.5
20180223054726 31 88 0.0 0.0 0.00 0.10 0.10 95 1020.5
20180223054534 31 88 0.0 0.0 0.00 0.10 0.10 95 1020.4
20180223054341 31 88 0.0 0.0 0.00 0.10 0.10 95 1020.4
20180223054149 31 88 0.0 0.0 0.00 0.10 0.10 95 1020.4
20180223053956 31 88 0.0 0.0 0.00 0.10 0.10 95 1020.4
20180223053804 31 88 0.0 0.0 0.00 0.10 0.10 95 1020.4
20180223053611 31 88 0.0 0.0 0.00 0.10 0.10 95 1020.4
20180223053419 31 88 0.0 0.0 0.00 0.10 0.10 95 1020.4
20180223053223 31 88 0.0 0.0 0.00 0.10 0.10 95 1020.3
20180223053032 31 88 0.0 0.0 0.00 0.10 0.10 94 1020.3
20180223052837 31 88 0.0 0.0 0.00 0.10 0.10 94 1020.4
20180223052650 31 88 0.0 0.0 0.00 0.10 0.10 95 1020.4
20180223052453 32 88 0.0 0.0 0.00 0.10 0.10 95 1020.3
20180223052302 32 88 0.0 0.0 0.00 0.10 0.10 95 1020.4
20180223052113 32 88 0.0 0.0 0.00 0.10 0.10 95 1020.3
20180223051921 32 88 0.0 0.0 0.00 0.10 0.10 95 1020.3
20180223051728 32 88 0.0 0.0 0.00 0.10 0.10 95 1020.2
20180223051537 32 88 0.0 0.0 0.00 0.10 0.10 95 1020.2
20180223051345 32 88 0.0 0.0 0.00 0.10 0.10 95 1020.2
20180223051155 32 88 0.0 0.0 0.00 0.10 0.10 95 1020.1
20180223051000 32 88 0.0 0.0 0.00 0.10 0.10 95 1020.2
20180223050804 32 88 0.0 0.0 0.00 0.10 0.10 95 1020.1
20180223050617 32 88 0.0 0.0 0.00 0.10 0.10 95 1020.1
20180223050421 32 88 0.0 0.0 0.00 0.10 0.10 95 1020.1
20180223050234 32 88 0.0 0.0 0.00 0.10 0.10 95 1020.0
20180223050036 32 88 0.0 0.0 0.00 0.10 0.10 95 1020.0
20180223045845 32 88 0.0 0.0 0.00 0.10 0.10 95 1020.0
20180223045658 32 88 0.0 0.0 0.00 0.10 0.10 95 1020.0
20180223045505 32 88 0.0 0.0 0.00 0.10 0.10 95 1020.0
20180223045312 32 88 0.0 0.0 0.00 0.10 0.10 95 1019.9
20180223045125 32 88 0.0 0.0 0.00 0.10 0.10 95 1019.9
20180223044935 32 88 0.0 0.0 0.00 0.10 0.10 95 1020.0
20180223044747 32 88 0.0 0.0 0.00 0.10 0.10 95 1019.9
20180223044557 32 88 0.0 0.0 0.00 0.10 0.10 95 1020.0
20180223044403 32 88 0.0 0.0 0.00 0.10 0.10 95 1074.8
20180223044214 32 88 0.0 0.0 0.00 0.10 0.10 95 1074.8
20180223044018 32 88 0.0 0.0 0.00 0.10 0.10 95 1019.9
20180223043831 32 88 0.0 0.0 0.00 0.10 0.10 95 1019.9
20180223043636 32 88 0.0 0.0 0.00 0.10 0.10 95 1019.9
20180223043445 32 88 0.0 0.0 0.00 0.10 0.10 95 1019.8
20180223043258 32 88 0.0 0.0 0.00 0.10 0.10 95 1019.8
20180223043106 32 88 0.0 0.0 0.00 0.10 0.10 95 1019.9
20180223042915 32 88 0.0 0.0 0.00 0.10 0.10 95 1019.8
20180223042728 32 88 0.0 0.0 0.00 0.10 0.10 95 1019.7
20180223042534 32 88 0.0 0.0 0.00 0.10 0.10 95 1019.7
20180223042347 32 88 0.0 0.0 0.00 0.10 0.10 95 1019.7
20180223042155 32 88 0.0 0.0 0.00 0.10 0.10 95 1019.7
20180223041958 32 88 0.0 0.0 0.00 0.10 0.10 95 1019.7
20180223041811 32 88 0.0 0.0 0.00 0.10 0.10 95 1019.7
20180223041615 32 88 0.0 0.0 0.00 0.10 0.10 95 1019.7
20180223041428 32 88 0.0 0.0 0.00 0.10 0.10 95 1019.7
20180223041232 32 88 0.0 0.0 0.00 0.10 0.10 95 1019.7
20180223041036 32 88 0.0 0.0 0.00 0.10 0.10 95 1019.7
20180223040846 32 88 0.0 0.0 0.00 0.10 0.10 95 1019.7
20180223040654 32 88 0.0 0.0 0.00 0.10 0.10 95 1019.6
20180223040457 32 88 0.0 0.0 0.00 0.10 0.10 95 1019.5
20180223040309 32 88 0.0 0.0 0.00 0.10 0.10 95 1019.5
20180223040117 32 88 0.0 0.0 0.00 0.10 0.10 95 1019.5
20180223035929 32 88 0.0 0.0 0.00 0.10 0.10 95 1019.5
20180223035738 32 88 0.0 0.0 0.00 0.10 0.10 95 1019.4
20180223035543 32 88 0.0 0.0 0.01 0.10 0.10 95 1019.4
20180223035356 32 88 0.0 0.0 0.01 0.10 0.10 95 1019.4
20180223035200 32 88 0.0 0.0 0.01 0.10 0.10 95 1019.4
20180223035012 32 88 0.0 0.0 0.01 0.10 0.10 95 1019.4
20180223034816 32 88 0.0 0.0 0.01 0.10 0.10 95 1019.4
20180223034623 32 88 0.0 0.0 0.01 0.10 0.10 95 1019.4
20180223034432 32 88 0.0 0.0 0.01 0.10 0.10 95 1019.4
20180223034238 32 88 0.0 0.0 0.01 0.10 0.10 95 1019.4
20180223034041 32 88 0.0 0.0 0.01 0.10 0.10 95 1019.4
20180223033854 32 88 0.0 0.0 0.01 0.10 0.10 94 1019.3
20180223033703 32 88 0.0 0.0 0.01 0.10 0.10 94 1019.3
20180223033510 32 88 0.0 0.0 0.01 0.10 0.10 94 1019.3
20180223033318 32 88 0.0 0.0 0.01 0.10 0.10 94 1019.3
20180223033125 32 88 0.0 0.0 0.01 0.10 0.10 94 1019.3
20180223032938 32 88 0.0 0.0 0.01 0.10 0.10 94 1019.3
20180223032744 32 88 0.0 0.0 0.01 0.10 0.10 94 1019.3
20180223032556 32 88 0.0 0.0 0.01 0.10 0.10 94 1019.3
20180223032351 32 88 0.0 0.0 0.01 0.10 0.10 94 1019.3
20180223032200 32 88 0.0 0.0 0.01 0.10 0.10 94 1019.3
20180223032006 32 88 0.0 0.0 0.01 0.10 0.10 94 1019.3
20180223031813 32 88 0.0 0.0 0.01 0.10 0.10 94 1019.2
20180223031618 32 88 0.0 0.0 0.01 0.10 0.10 94 1019.2
20180223031430 32 88 0.0 0.0 0.01 0.10 0.10 94 1019.3
20180223031233 32 88 0.0 0.0 0.01 0.10 0.10 94 1019.3
20180223031040 32 88 0.0 0.0 0.01 0.10 0.10 94 1019.2
20180223030847 32 88 0.0 0.0 0.01 0.10 0.10 94 1019.2
20180223030655 33 88 0.0 0.0 0.01 0.10 0.10 94 1019.2
20180223030504 32 88 0.0 0.0 0.01 0.10 0.10 94 1019.1
20180223030312 32 88 0.0 0.0 0.01 0.10 0.10 94 1019.1
20180223030124 32 88 0.0 0.0 0.01 0.10 0.10 94 1019.1
20180223025932 32 88 0.0 0.0 0.01 0.10 0.10 94 1019.1
20180223025738 33 88 0.0 0.0 0.01 0.10 0.10 94 1019.1
20180223025547 33 88 0.0 0.0 0.01 0.10 0.10 94 1019.1
20180223025354 33 88 0.0 0.0 0.01 0.10 0.10 94 1019.1
20180223025158 33 88 0.0 0.0 0.01 0.10 0.10 94 1019.1
20180223025007 33 88 0.0 0.0 0.01 0.10 0.10 94 1019.0
20180223024812 33 88 0.0 0.0 0.00 0.09 0.09 94 1019.0
20180223024622 33 88 0.0 0.0 0.00 0.09 0.09 94 1018.9
20180223024427 33 88 0.0 0.0 0.00 0.09 0.09 94 1018.9
20180223024234 33 88 0.0 0.0 0.01 0.09 0.09 94 1018.9
20180223024041 33 88 0.0 0.0 0.01 0.09 0.09 94 1018.8
20180223023848 33 88 0.0 0.0 0.01 0.09 0.09 94 1018.7
20180223023700 33 88 0.0 0.0 0.01 0.09 0.09 94 1018.6
20180223023503 33 88 0.0 0.0 0.01 0.09 0.09 94 1018.6
20180223023311 33 88 0.0 0.0 0.01 0.09 0.09 94 1018.6
20180223023123 33 88 0.0 0.0 0.01 0.09 0.09 94 1018.5
20180223022931 33 88 0.0 0.0 0.01 0.09 0.09 94 1018.5
20180223022739 33 88 0.0 1.0 0.01 0.09 0.09 94 1018.5
20180223022552 33 88 0.0 1.0 0.02 0.09 0.09 94 1018.5
20180223022356 33 88 0.0 1.0 0.02 0.09 0.09 94 1018.6
20180223022209 33 88 0.0 1.0 0.02 0.09 0.09 94 1018.7
20180223022012 33 88 0.0 1.0 0.02 0.09 0.09 94 1018.6
20180223021821 33 88 0.0 0.0 0.02 0.09 0.09 93 1018.7
20180223021630 33 88 0.0 5.0 0.02 0.09 0.09 93 1018.6
20180223021438 33 88 0.0 5.0 0.02 0.09 0.09 93 1018.7
20180223021250 33 88 0.0 5.0 0.02 0.09 0.09 93 1018.7
20180223021059 33 88 0.0 5.0 0.02 0.09 0.09 93 1018.7
20180223020907 33 88 0.0 5.0 0.02 0.09 0.09 93 1018.9
20180223020720 33 88 1.0 5.0 0.02 0.09 0.09 93 1018.9
20180223020525 33 88 1.0 3.0 0.02 0.09 0.09 93 1019.1
20180223020340 33 55 1.0 3.0 0.02 0.09 0.09 92 1019.1
20180223020015 33 51 1.0 3.0 0.02 0.09 0.09 92 1019.2
20180223015827 33 42 0.0 3.0 0.02 0.09 0.09 92 1019.3
20180223015633 34 28 0.0 3.0 0.02 0.09 0.09 92 1019.3
20180223015442 34 11 0.0 3.0 0.02 0.09 0.09 92 1019.3
20180223015254 34 11 0.0 4.0 0.02 0.09 0.09 92 1019.3
20180223015103 34 36 0.0 5.0 0.02 0.09 0.09 92 1019.3
20180223014911 34 37 1.0 5.0 0.02 0.09 0.09 92 1019.3
20180223014725 34 38 0.0 10.0 0.02 0.09 0.09 92 1019.3
20180223014530 35 34 1.0 10.0 0.02 0.09 0.09 92 1019.3
20180223014343 35 27 1.0 10.0 0.03 0.09 0.09 92 1019.3
20180223014152 35 27 1.0 10.0 0.03 0.09 0.09 92 1019.2
20180223013955 35 27 1.0 10.0 0.04 0.09 0.09 92 1019.1
20180223013807 35 26 1.0 5.0 0.04 0.09 0.09 92 1019.1
20180223013611 36 65 1.0 5.0 0.04 0.08 0.08 92 1019.1
20180223013426 36 10 1.0 5.0 0.04 0.08 0.08 92 1019.0
20180223013229 36 355 0.0 5.0 0.05 0.08 0.08 92 1018.9
20180223013035 36 47 1.0 4.0 0.05 0.08 0.08 93 1018.8
20180223012843 36 47 1.0 4.0 0.05 0.08 0.08 93 1018.8
20180223012650 36 65 1.0 4.0 0.05 0.08 0.08 93 1018.8
20180223012458 36 9 0.0 4.0 0.05 0.08 0.08 93 1018.8
20180223012311 36 53 1.0 4.0 0.05 0.08 0.08 93 1018.7
20180223012121 36 53 1.0 4.0 0.06 0.08 0.08 93 1018.6
20180223011933 36 59 0.0 4.0 0.05 0.07 0.07 93 1018.7
20180223011741 36 60 0.0 4.0 0.05 0.07 0.07 93 1018.6
20180223011544 36 5 0.0 3.0 0.05 0.07 0.07 93 1018.7
20180223011357 36 355 0.0 3.0 0.05 0.07 0.07 93 1018.8
20180223011204 36 355 0.0 0.0 0.05 0.07 0.07 92 1018.7
20180223011012 36 355 0.0 0.0 0.05 0.07 0.07 92 1018.7
20180223010816 36 355 0.0 3.0 0.05 0.07 0.07 92 1018.7
20180223010624 36 355 0.0 4.0 0.05 0.07 0.07 92 1018.7
20180223010433 36 355 0.0 4.0 0.06 0.07 0.07 92 1018.6
20180223010242 36 355 0.0 4.0 0.06 0.07 0.07 92 1018.6
20180223010044 36 355 0.0 4.0 0.06 0.07 0.07 92 1018.6
20180223005856 36 332 0.0 0.0 0.06 0.07 0.07 92 1018.5
20180223005703 36 332 0.0 1.0 0.06 0.07 0.07 92 1018.4
20180223005512 36 332 0.0 1.0 0.06 0.07 0.07 92 1018.4
20180223005320 36 332 0.0 1.0 0.06 0.07 0.07 91 1018.4
20180223005129 36 332 0.0 2.0 0.06 0.07 0.07 91 1018.4
20180223004942 36 332 0.0 2.0 0.06 0.07 0.07 91 1018.4
20180223004750 36 332 0.0 2.0 0.06 0.07 0.07 91 1018.3
20180223004603 36 332 0.0 2.0 0.06 0.07 0.07 91 1018.3
20180223004409 36 332 0.0 2.0 0.06 0.07 0.07 90 1018.4
20180223004215 36 331 0.0 0.0 0.06 0.07 0.07 90 1018.4
20180223004022 36 331 0.0 4.0 0.06 0.07 0.07 90 1018.4
20180223003830 37 331 0.0 6.0 0.05 0.06 0.06 90 1018.4
20180223003635 37 330 1.0 6.0 0.05 0.06 0.06 89 1018.7
20180223003447 37 330 2.0 7.0 0.05 0.06 0.06 89 1018.8
20180223003252 37 331 3.0 7.0 0.04 0.05 0.05 89 1018.8
20180223003104 37 329 4.0 7.0 0.03 0.04 0.04 90 1018.9
20180223002913 37 311 3.0 7.0 0.03 0.04 0.04 89 1018.8
20180223002721 37 262 1.0 6.0 0.02 0.03 0.03 90 1018.8
20180223002531 37 178 0.0 3.0 0.02 0.03 0.03 90 1018.7
20180223002340 37 178 0.0 3.0 0.02 0.03 0.03 90 1018.7
20180223002152 37 178 0.0 3.0 0.02 0.03 0.03 90 1018.8
20180223001955 37 178 1.0 3.0 0.02 0.03 0.03 90 1018.6
20180223001804 37 178 1.0 3.0 0.02 0.03 0.03 89 1073.2
20180223001613 37 178 0.0 3.0 0.01 0.02 0.02 90 1073.2
20180223001420 37 173 0.0 1.0 0.01 0.02 0.02 89 1018.5
20180223001224 38 173 0.0 1.0 0.01 0.02 0.02 89 1018.4
20180223001034 38 173 0.0 5.0 0.01 0.02 0.02 89 1018.3
20180223000839 38 173 0.0 5.0 0.01 0.02 0.02 88 1018.3
20180223000651 38 173 1.0 5.0 0.01 0.02 0.02 88 1018.3
20180223000456 38 173 1.0 5.0 0.01 0.02 0.02 88 1018.5
20180223000305 38 173 1.0 5.0 0.01 0.02 0.02 88 1018.6
20180223000117 38 173 1.0 5.0 0.01 0.02 0.02 88 1018.7
20180222235926 38 176 1.0 3.0 0.00 0.01 0.01 89 1018.7
20180222235738 38 176 0.0 1.0 0.00 0.01 0.01 88 1018.8
20180222235544 38 176 0.0 1.0 0.00 0.01 0.01 88 1018.9
20180222235352 38 176 0.0 3.0 0.00 0.01 0.01 88 1018.7
20180222235202 38 176 0.0 3.0 0.00 0.01 0.01 88 1018.6
20180222235007 38 176 0.0 3.0 0.00 0.01 0.01 88 1018.7
20180222234814 39 176 0.0 3.0 0.01 0.01 0.01 88 1018.7
20180222234628 39 176 0.0 3.0 0.01 0.01 0.01 88 1018.7
20180222234432 39 176 0.0 7.0 0.01 0.01 0.01 87 1018.7
20180222234246 39 176 1.0 7.0 0.01 0.01 0.01 87 1018.7
20180222234055 39 176 1.0 7.0 0.01 0.01 0.01 87 1018.7
20180222233905 39 182 1.0 7.0 0.01 0.01 0.01 87 1018.8
20180222233718 39 185 1.0 7.0 0.01 0.01 0.01 87 1018.8
20180222233524 39 183 0.0 5.0 0.01 0.01 0.01 87 1018.8
20180222233338 39 213 0.0 5.0 0.01 0.01 0.01 87 1018.8
20180222233147 40 172 1.0 4.0 0.01 0.01 0.01 87 1018.8
20180222232955 40 166 1.0 4.0 0.01 0.01 0.01 87 1018.8
20180222232804 40 166 1.0 4.0 0.01 0.01 0.01 87 1018.9
20180222232613 40 181 1.0 4.0 0.01 0.01 0.01 87 1018.9
20180222232418 40 175 0.0 3.0 0.01 0.01 0.01 87 1018.9
20180222232232 40 175 0.0 3.0 0.01 0.01 0.01 88 1018.8
20180222232036 40 175 0.0 0.0 0.01 0.01 0.01 87 1018.9
20180222231849 40 175 0.0 0.0 0.01 0.01 0.01 87 1018.9
20180222231655 40 175 0.0 0.0 0.01 0.01 0.01 87 1018.9
20180222231459 40 175 0.0 4.0 0.01 0.01 0.01 88 1018.9
20180222231313 40 175 0.0 5.0 0.01 0.01 0.01 88 1018.9
20180222231121 40 175 0.0 5.0 0.01 0.01 0.01 87 1019.0
20180222230934 40 175 0.0 5.0 0.01 0.01 0.01 87 1019.0
20180222230743 40 175 0.0 3.0 0.01 0.01 0.01 86 1019.1
20180222230549 40 176 0.0 3.0 0.01 0.01 0.01 86 1019.1
20180222230359 40 238 0.0 0.0 0.01 0.01 0.01 85 1019.1
20180222230208 40 238 0.0 0.0 0.01 0.01 0.01 85 1019.2
20180222230011 40 238 0.0 0.0 0.01 0.01 0.01 84 1019.2
20180222225823 40 238 0.0 0.0 0.01 0.01 0.01 84 1019.2
20180222225630 40 238 0.0 4.0 0.01 0.01 0.01 83 1019.3
20180222225443 40 238 0.0 4.0 0.01 0.01 0.01 82 1019.3
20180222225248 41 238 0.0 5.0 0.01 0.01 0.01 82 1019.3
20180222225055 41 238 1.0 5.0 0.01 0.01 0.01 81 1019.3
20180222224907 41 238 2.0 5.0 0.01 0.01 0.01 78 1019.4
20180222224716 41 238 2.0 5.0 0.01 0.01 0.01 78 1019.4
20180222224526 42 239 1.0 7.0 0.01 0.01 0.01 77 1019.4
20180222224334 42 257 0.0 7.0 0.00 0.00 0.00 77 1019.3
20180222224143 43 276 0.0 7.0 0.00 0.00 0.00 76 1019.4
20180222223955 43 277 0.0 8.0 0.00 0.00 0.00 74 1019.4
20180222223805 43 277 0.0 8.0 0.00 0.00 0.00 73 1019.4
20180222223610 43 132 1.0 8.0 0.00 0.00 0.00 67 1019.4
20180222223423 44 224 1.0 8.0 0.00 0.00 0.00 67 1019.2
20180222223229 44 209 1.0 8.0 0.00 0.00 0.00 67 1019.4
20180222223039 45 214 2.0 8.0 0.00 0.00 0.00 63 1019.3
20180222222844 45 247 1.0 5.0 0.00 0.00 0.00 60 1073.8
20180222222712 45 162 1.0 5.0 0.00 0.00 0.00 59 1073.8
20180222222520 45 162 0.0 5.0 0.00 0.00 0.00 60 1019.2
20180222222329 45 162 0.0 4.0 0.00 0.00 0.00 60 1019.2
20180222222137 45 162 0.0 10.0 0.00 0.00 0.00 60 1019.2
20180222221952 45 162 0.0 10.0 0.00 0.00 0.00 60 1019.2
20180222221819 45 162 0.0 10.0 0.00 0.00 0.00 60 1019.2
20180222221627 45 162 0.0 5.0 0.00 0.00 0.00 60 1019.2
20180222221436 45 162 0.0 5.0 0.00 0.00 0.00 60 1019.2